Back to catalog

STARLINK-30344

AliveCommunicationsVLEO
NORAD 57737·PAYLOAD·🇺🇸 United States

Launched Sep 1, 2023 from Cape Canaveral Space Force Station

Loading…

Next Passes (next 24 hours)

TLE

FreshSource: CelesTrak SupGP

Epoch: Sep 14, 2026, 14:16 UTC

1 57737C 23131F   26257.59493056 -.00049264  00000+0 -17844-2 0  2571
2 57737  43.0007 214.9861 0001532 264.5932  53.2847 15.27601074    11

Track STARLINK-30344 in real time with AllMySat

Download on the App Store